Presure
209 207 209 201 186 203 181 203 187 183 186 203 197 208 195 223 205 209 215 192 204 184 227 226 233 246 244 245 199 200 195 102 132 171 103 95 90 76 136 118 130 177 180 149 157
215 207 209 208 202 186 184 202 224 201 195 203 214 225 209 205 217 203 220 219 207 218 235 225 231 246 246 238 252 244 195 179 80 197 200 100 198 94 100 98 195 90 136 114 92
221 216 206 204 215 207 205 204 207 202 220 217 214 221 195 212 219 210 194 204 212 210 203 234 237 227 237 242 231 249 255 170 188 99 198 149 100 99 117 98 108 118 112 112 86
226 215 211 205 193 205 204 208 210 190 206 226 216 224 215 229 215 203 181 196 217 211 234 233 236 239 285 239 244 231 239 211 194 184 103 196 108 110 201 84 95 110 108 109 116
230 220 212 216 203 203 202 202 208 203 223 206 206 221 218 231 217 205 202 203 214 199 228 259 235 229 279 278 291 241 238 243 89 210 127 95 199 139 208 97 93 102 114 79 83
202 226 219 217 211 206 211 208 199 197 204 210 205 210 217 224 212 204 199 199 210 218 144 169 229 275 267 270 278 281 242 230 122 203 176 189 162 188 111 118 101 101 102 88 82
244 233 223 218 218 222 216 215 216 210 186 211 221 223 210 223 205 205 195 195 196 224 217 226 260 267 263 260 270 274 279 239 223 99 226 178 191 176 183 160 109 106 109 107 111
232 231 223 222 221 223 223 219 216 220 229 221 221 192 218 213 224 201 194 196 197 216 213 234 266 260 253 258 259 259 268 271 218 226 249 207 182 127 102 98 207 110 108 108 111
269 244 227 127 220 213 215 227 214 215 207 213 212 203 215 206 227 200 195 197 212 213 223 257 256 251 241 244 246 252 258 268 263 218 251 238 192 192 191 130 95 89 115 107 106
207 252 271 252 226 233 233 231 223 224 219 195 207 215 219 212 210 191 191 205 211 213 223 250 243 232 229 231 233 242 252 256 259 260 229 258 202 193 189 147 194 102 108 106 115
204 227 212 217 270 251 238 227 223 207 215 215 213 214 217 204 208 201 201 208 208 218 244 244 233 232 236 238 241 248 253 257 262 266 222 253 181 95 175 126 95 170 91 170 108
238 211 213 213 219 198 270 268 231 197 222 204 209 207 224 221 214 198 207 203 216 225 243 239 233 237 241 245 249 206 250 255 261 267 213 234 77 78 191 191 176 193 78 177 184
236 221 197 210 232 233 247 159 264 234 230 205 213 215 207 223 201 204 202 215 225 248 240 237 239 240 241 246 247 245 251 250 261 277 287 152 253 128 135 159 179 189 183 187 189
225 229 231 208 235 232 249 287 270 244 244 221 199 215 214 201 206 205 219 230 252 239 238 232 240 244 249 259 260 272 283 286 286 289 260 163 245 214 192 186 124 110 143 143 109
221 229 233 236 236 239 253 281 193 242 234 208 212 214 191 207 201 221 228 252 234 240 250 251 260 283 314 311 306 310 304 305 297 290 296 312 238 222 197 196 179 184 114 109 108
239 241 193 224 241 241 259 279 190 250 220 219 216 193 204 205 221 231 252 236 233 249 282 297 324 315 308 307 313 317 325 334 358 337 302 284 127 82 199 133 176 186 178 165 176
246 251 259 261 262 248 265 276 256 241 229 223 205 208 212 226 236 238 225 222 271 285 323 325 323 325 326 329 335 348 367 374 366 198 335 284 210 236 154 181 188 190 180 174 179
338 302 290 280 277 272 288 267 245 226 227 207 212 216 228 240 233 222 262 295 350 368 392 377 379 365 357 373 384 399 413 404 372 418 297 290 203 239 114 175 189 189 178 178 178
324 322 305 278 272 269 285 248 231 232 206 212 216 228 240 218 216 277 377 385 400 382 380 373 381 389 367 370 387 387 431 449 413 288 285 262 166 235 215 187 182 189 176 171 180
361 321 296 282 272 290 283 230 228 211 211 209 226 238 210 221 269 392 417 397 331 330 328 331 347 356 309 308 364 335 367 347 274 265 208 219 230 232 210 183 180 188 174 174 183
332 337 299 198 287 217 227 225 223 205 207 226 235 214 219 249 337 371 334 332 324 324 327 343 336 291 157 88 284 298 309 266 259 261 224 168 237 230 199 179 186 180 178 180 197
340 314 277 271 271 195 230 224 206 208 221 236 216 219 233 274 348 315 317 310 320 341 342 330 270 267 266 263 261 99 251 239 172 252 234 195 195 78 111 177 182 180 177 188 209
315 277 297 285 223 198 222 205 210 216 232 210 207 222 248 339 318 317 323 324 296 315 125 269 261 257 261 256 261 244 247 257 255 252 216 224 225 196 187 179 173 174 171 196 205
285 287 288 234 232 217 165 206 208 226 247 207 214 226 259 333 316 319 87 280 282 268 257 239 216 254 240 241 256 255 242 243 233 217 217 195 211 193 179 180 178 172 174 203 193
283 281 234 232 224 208 206 216 218 243 213 207 226 226 257 350 242 286 278 276 278 163 247 171 248 124 247 245 238 249 206 230 222 216 234 187 192 187 186 176 169 181 182 205 185
279 253 235 226 214 212 211 213 231 239 208 208 221 229 251 329 244 272 294 294 206 249 248 243 243 238 232 250 242 253 239 185 239 229 232 204 194 187 179 171 170 165 173 192 171
265 236 230 221 213 212 212 217 241 222 209 213 218 234 245 263 289 259 234 166 249 248 221 222 193 261 225 202 247 236 264 216 259 143 217 192 186 180 171 163 162 180 179 179 180
Wind_Speed
77 72 70 66 59 62 62 63 57 60 57 59 58 57 57 53 56 55 59 55 57 58 55 56 56 59 61 66 67 70 64 31 63 61 41 36 31 23 57 46 47 76 66 52 52
78 73 71 68 62 62 60 63 64 63 63 63 61 55 55 53 54 57 58 55 58 57 54 57 58 59 62 66 66 66 69 77 19 72 73 42 57 36 27 33 85 35 40 42 27
76 76 69 66 67 64 65 64 58 62 59 60 60 57 56 56 51 60 59 58 55 58 60 57 59 60 63 67 68 68 65 75 79 37 74 58 44 38 52 34 36 40 41 46 18
75 71 71 68 59 66 64 67 63 61 60 57 59 60 55 52 55 60 59 60 56 59 55 58 61 61 54 65 71 69 71 76 78 75 38 67 58 51 65 31 34 39 41 42 37
71 72 70 72 65 65 63 63 68 62 59 58 57 58 54 53 59 55 62 60 58 59 57 54 63 65 55 56 52 70 73 72 36 76 59 43 62 53 69 40 42 40 45 20 21
58 71 66 68 70 69 72 70 66 64 62 61 59 58 55 58 60 54 60 64 61 59 57 58 64 56 58 56 54 54 74 73 50 77 75 70 57 67 57 59 47 44 45 29 24
69 68 69 69 68 71 69 66 69 66 57 63 63 59 60 60 60 58 61 64 62 60 62 63 56 54 53 54 50 50 54 75 77 47 83 73 65 69 73 63 54 52 54 49 47
62 66 64 65 67 69 71 68 67 68 61 59 58 62 61 63 59 61 61 65 63 61 66 65 55 55 52 50 51 53 51 54 82 82 74 75 70 62 36 40 63 58 48 45 46
63 68 62 36 65 66 68 73 69 65 66 62 61 63 61 67 62 60 63 64 64 64 65 55 47 50 51 50 49 49 50 53 63 85 79 82 75 79 75 52 38 24 54 46 43
44 51 65 66 65 68 69 69 67 65 60 66 64 62 61 66 62 61 64 65 65 67 69 56 51 50 53 52 54 61 62 63 61 70 83 78 76 83 73 63 60 29 47 49 42
49 44 47 44 68 70 67 69 68 65 62 61 61 62 63 62 61 64 64 64 68 70 62 60 55 56 65 66 66 64 61 59 57 61 82 78 67 39 68 42 35 64 30 60 52
52 50 49 48 48 47 67 76 69 55 62 60 64 66 65 62 62 64 64 67 71 75 67 62 57 69 72 72 71 56 66 59 63 65 62 85 26 31 75 69 55 60 30 58 60
55 50 55 53 51 49 54 42 68 68 59 56 63 65 66 60 59 68 65 71 76 70 70 66 66 76 74 75 74 71 67 65 68 75 68 58 84 47 65 54 65 60 62 58 52
55 54 54 58 54 51 55 58 63 61 54 51 65 68 63 59 61 67 71 77 72 72 75 65 77 80 82 80 82 80 77 77 75 77 60 62 82 92 77 73 61 56 57 56 53
58 57 55 60 59 58 54 56 41 53 45 55 61 59 59 64 63 74 78 76 72 77 80 76 78 83 73 66 78 68 76 75 78 78 69 66 83 89 80 67 61 63 62 59 55
71 72 53 62 62 57 53 54 38 47 49 51 54 53 59 64 66 74 74 72 73 80 82 77 68 66 66 72 77 73 76 76 75 75 77 71 47 28 77 41 62 62 57 63 53
79 79 78 71 63 50 52 48 41 44 49 46 47 53 56 62 70 67 64 68 79 84 74 68 65 66 70 74 76 76 72 68 73 35 64 69 81 85 52 64 64 57 55 60 50
75 78 73 62 54 50 48 40 37 48 44 42 46 49 56 64 59 60 72 79 66 55 42 45 43 52 56 53 45 38 47 72 65 55 54 68 77 79 28 65 58 56 54 52 49
65 71 65 56 49 46 42 34 43 39 39 40 42 50 57 49 52 66 57 41 21 21 20 19 21 16 16 19 34 32 43 45 50 59 66 76 61 84 77 61 60 57 54 56 46
46 58 56 51 44 39 33 42 38 32 35 37 43 49 38 46 58 36 16 7 22 19 19 17 14 15 63 62 32 56 51 64 73 71 61 82 83 81 75 64 61 57 54 48 44
47 50 49 29 41 27 42 34 27 35 32 36 43 32 37 50 36 11 11 19 16 18 18 20 40 65 17 19 63 57 40 75 73 68 51 67 75 74 60 58 56 51 44 40 43
43 46 44 37 37 31 36 27 31 28 28 37 26 31 37 48 6 6 10 18 16 13 26 56 70 66 67 65 70 21 66 62 52 75 75 64 58 15 26 59 50 43 39 40 43
45 46 44 40 38 29 30 30 27 22 30 18 17 26 35 10 4 6 26 36 61 54 14 76 71 66 65 61 63 70 60 45 43 64 68 68 71 58 56 52 47 43 39 40 41
50 48 43 47 42 30 20 29 23 23 24 13 17 20 30 1 24 44 18 60 67 79 72 58 51 59 56 61 53 61 57 57 69 73 67 57 68 54 50 46 42 40 34 42 38
50 47 48 49 40 32 29 23 18 23 14 11 14 13 25 27 32 59 57 62 73 33 70 37 63 20 55 59 64 62 51 77 71 67 74 54 51 48 47 44 44 32 31 42 37
53 54 54 46 39 35 30 20 19 19 16 11 6 10 20 46 33 31 44 63 35 61 67 66 60 65 60 63 67 60 81 40 65 70 73 58 48 43 39 38 33 38 39 40 38
57 56 50 45 36 34 25 19 20 20 18 11 4 7 10 10 37 34 39 24 56 54 50 48 31 57 53 38 70 58 45 46 64 34 60 42 36 31 35 41 42 40 40 38 39
Wind_Direction
251 255 257 255 246 262 247 267 254 252 253 266 259 264 258 265 262 264 260 255 257 253 257 252 252 253 249 247 239 236 234 242 232 235 230 226 226 237 237 236 237 240 239 237 239
247 252 257 257 257 252 252 263 273 265 261 264 269 269 263 261 264 262 263 260 259 261 262 257 255 254 251 248 246 240 232 237 240 236 237 232 231 228 223 227 236 225 230 245 225
245 250 253 257 260 260 261 264 260 264 274 268 267 269 258 263 260 261 259 261 263 261 260 264 260 256 255 251 246 243 237 242 236 230 238 235 233 222 231 225 232 234 237 248 237
245 249 251 254 251 257 259 267 264 254 265 274 266 271 264 267 259 261 260 262 266 262 271 265 265 261 255 251 249 241 238 236 238 237 239 235 236 235 236 231 229 236 238 246 246
244 247 251 253 254 256 255 258 266 260 268 260 261 272 266 270 259 258 265 266 269 265 270 271 266 264 255 253 251 243 237 235 234 235 234 236 234 236 240 224 227 236 238 235 230
250 246 249 252 255 256 260 259 256 260 259 264 260 267 267 264 260 258 262 266 269 271 244 250 269 259 256 256 252 247 238 233 233 235 236 228 231 232 236 230 235 234 235 246 245
246 249 252 254 255 257 258 259 261 260 261 260 269 270 264 266 259 259 260 265 268 277 274 275 275 261 255 254 254 251 246 234 233 232 230 230 226 233 234 234 234 237 238 241 248
250 249 253 253 254 255 257 256 256 262 264 263 263 261 264 263 263 259 262 265 269 276 276 280 266 259 256 251 250 248 248 242 231 231 229 226 223 233 232 237 233 240 241 247 249
245 249 249 270 252 253 253 258 253 254 256 259 258 259 266 262 270 262 265 269 274 275 280 279 270 262 260 259 255 255 253 248 236 229 228 224 222 227 229 235 236 245 238 245 251
253 251 251 252 255 253 255 255 257 257 253 262 259 265 266 266 268 268 271 275 278 281 285 277 270 264 263 258 252 246 243 236 234 235 225 222 219 227 227 232 227 244 244 245 248
254 257 252 254 254 256 255 251 252 250 250 254 259 264 264 265 269 269 274 279 279 281 281 273 274 271 262 257 254 253 250 250 248 238 224 222 216 235 226 237 238 230 248 235 250
258 251 253 256 261 265 258 256 252 258 252 257 258 263 265 268 270 274 277 277 282 284 279 276 274 266 262 260 256 252 250 252 250 241 231 219 220 237 221 222 225 225 251 236 238
265 249 262 255 266 265 268 266 253 251 253 252 260 261 266 267 270 274 277 280 283 279 275 271 267 264 262 260 258 254 251 250 250 249 242 216 212 230 228 222 223 223 228 234 242
262 263 262 254 268 267 267 260 251 249 250 246 259 262 268 274 276 277 280 284 283 278 275 274 271 266 264 262 258 254 252 246 243 243 237 218 210 220 219 218 238 242 235 239 250
253 262 262 267 266 268 266 256 263 245 252 247 253 264 279 277 281 285 286 283 281 279 276 272 268 266 264 261 256 250 247 240 236 235 230 225 208 215 218 214 219 223 243 251 251
262 264 264 265 263 264 260 251 262 245 243 244 254 268 271 277 281 282 282 283 282 279 280 279 271 266 262 256 254 250 245 242 234 227 220 200 213 235 215 216 218 222 225 235 237
259 259 259 258 254 252 251 245 239 242 244 250 260 266 273 280 285 284 282 283 284 284 277 271 264 257 255 254 254 250 242 230 229 228 206 197 206 208 216 211 216 218 222 231 235
233 239 242 242 241 242 239 233 233 239 249 255 263 274 281 285 286 288 290 292 280 268 260 255 251 250 250 251 243 239 233 225 217 207 182 193 205 205 228 216 216 219 220 230 233
228 229 229 231 231 234 225 219 229 239 256 265 275 282 287 290 292 300 291 290 257 235 235 222 224 208 199 211 219 224 216 188 193 168 182 189 220 201 204 207 215 219 220 231 236
216 220 219 217 221 220 218 217 228 245 256 270 279 287 292 298 306 305 297 169 142 132 133 125 138 158 117 113 143 123 142 148 163 171 196 195 195 197 201 204 211 218 222 229 238
211 207 205 229 209 227 208 220 228 248 261 275 284 291 299 306 317 123 135 144 144 124 110 129 133 124 160 250 115 105 117 165 173 176 182 213 192 196 202 210 211 216 220 230 237
196 197 194 193 189 221 203 211 237 249 268 279 284 298 308 322 163 3 113 109 91 109 136 130 134 135 138 138 142 212 154 173 206 175 186 196 192 260 233 211 213 215 220 234 233
186 183 190 182 189 217 196 225 232 252 271 270 290 301 321 320 27 122 122 114 114 116 136 134 136 143 141 148 143 164 161 158 176 183 187 188 191 193 198 208 216 219 224 236 235
176 175 172 179 185 193 241 224 234 254 267 263 286 315 341 108 122 126 227 123 120 127 128 133 149 143 162 156 144 157 159 165 183 184 187 188 194 192 200 208 214 220 227 234 239
171 166 179 179 179 202 215 210 227 251 233 246 297 334 360 137 135 134 134 134 133 146 146 172 145 207 149 161 171 159 183 181 183 187 185 193 192 193 197 207 222 227 232 232 241
167 168 174 175 190 199 209 205 234 229 216 221 289 338 14 137 145 146 140 133 153 150 151 156 156 165 172 165 172 169 183 200 187 185 185 191 193 196 199 213 221 234 237 239 242
166 175 174 181 193 201 198 202 219 203 211 203 202 346 29 145 155 143 144 159 148 163 164 167 160 168 174 168 181 183 190 191 188 214 188 192 190 196 209 223 228 233 238 244 249